Voltar ao catálogo

COSMOS 1823 DEB

AtivoLEO
NORAD 19562·DEBRIS·🇷🇺 Russia

Lançado Feb 20, 1987 de Plesetsk Cosmodrome

Loading…

Próximas Passagens (próximas 24 horas)

TLE

EnvelhecendoSource: Space-Track

Época: Sep 12, 2026, 16:55 UTC

1 19562U 87020CD  26255.70498448  .00028615  00000-0  12254-1 0  9991
2 19562  74.3438 155.7340 0009222 234.1742 156.4048 14.24694830246143

Acompanhe COSMOS 1823 DEB em tempo real com AllMySat

Download on the App Store